Temp
6 5 3 5 6 5 4 4 4 4 6 6 6 7 7 9 8 8 9 9 9 9 9 9 9 9 9 8 8 8 8 7 6 6 6 5 4 4 4 4 4 4 3 3
4 4 4 4 4 4 4 3 3 4 5 5 6 7 7 8 8 7 8 8 9 10 9 9 9 9 9 8 8 8 8 7 6 5 4 4 3 3 3 3 3 3 2 2
3 4 4 3 4 3 3 3 3 4 4 5 4 6 7 8 8 8 8 8 9 10 10 9 9 9 9 9 9 7 7 6 5 5 4 3 3 3 3 3 2 2 2 1
2 3 3 4 3 3 3 3 3 3 3 3 5 5 6 6 8 8 8 9 9 9 9 9 9 9 9 9 9 7 6 5 5 5 5 3 3 2 2 1 2 2 1 0
4 3 2 3 4 4 4 4 4 3 3 3 4 4 7 6 7 7 8 9 9 9 9 9 9 9 8 8 8 8 6 5 3 4 3 2 2 1 1 1 1 1 0 -0
4 4 2 2 3 4 3 3 3 3 3 2 4 4 6 6 7 7 8 8 8 9 9 9 9 8 8 8 7 6 5 5 4 3 3 2 1 1 1 1 0 -0 -1 -1
3 4 4 2 2 2 2 2 1 1 2 2 4 4 5 7 7 7 7 7 7 7 7 7 8 7 7 7 7 6 6 5 3 2 0 1 1 0 0 -1 -1 -1 -2 -2
3 3 4 5 4 4 3 2 2 2 2 2 4 3 5 6 6 6 6 6 6 7 7 7 6 6 7 7 6 6 5 4 3 0 -0 0 -0 -0 -1 -1 -1 -2 -2 -2
2 3 3 4 4 3 2 2 4 3 3 0 3 4 4 4 4 5 4 5 5 6 6 7 6 6 6 7 7 5 4 2 0 -1 -1 -1 -1 0 -2 -1 -1 -2 -2 -2
2 1 3 3 3 3 3 3 2 1 1 2 1 2 5 3 3 3 4 4 4 4 4 4 5 5 5 5 5 3 1 1 -0 -1 -1 -1 -1 -1 -2 -2 -2 -3 -3 -3
0 0 2 2 3 3 2 2 2 1 1 0 0 1 1 1 1 2 2 3 3 3 3 2 2 3 3 3 1 1 1 0 -1 -0 -1 -1 -0 -0 -1 -2 -2 -3 -3 -3
-0 -0 -1 -0 1 2 3 2 0 0 -1 -1 -0 -0 -1 -1 -1 0 -0 -1 0 2 2 1 1 1 1 2 1 -0 -0 -0 1 -1 -1 -1 -1 -1 -2 -2 -2 -3 -4 -4
-0 -2 -1 -0 -2 -1 0 -1 -1 -1 -2 -2 -1 -1 -1 -1 -1 -1 -1 -0 -0 -1 0 0 -0 -0 -1 -1 -1 -1 -1 -1 -1 -1 -0 -0 -1 -1 -2 -3 -3 -4 -4 -5
-1 -2 -1 0 -2 -3 -3 -2 -3 -2 -3 -3 -2 -1 -2 -2 -2 -3 -3 -2 -2 -2 -2 -2 -2 -2 -2 -1 -2 -2 -1 -1 -1 -2 -2 -1 -2 -2 -3 -3 -4 -4 -5 -6
-3 -3 -3 -3 -3 -4 -4 -4 -3 -3 -4 -4 -3 -2 -1 -1 -2 -3 -2 -1 -1 -1 -0 -0 -0 -0 1 -0 -2 -2 -2 -2 -2 -2 -2 -2 -2 -3 -3 -3 -4 -5 -5 -6
-3 -4 -4 -4 -4 -5 -5 -4 -4 -3 -3 -4 -5 -4 -3 -2 -2 -2 -2 -2 -1 -1 -1 -1 -1 -1 -1 -1 -1 -2 -3 -2 -2 -2 -2 -3 -3 -3 -3 -4 -5 -5 -6 -6
-5 -5 -5 -5 -5 -5 -6 -2 -2 -2 -2 -3 -4 -2 -3 -2 -3 -2 -3 -3 -3 -3 -2 -2 -2 -2 -2 -2 -1 -2 -3 -3 -3 -3 -3 -3 -3 -3 -4 -4 -5 -6 -6 -6
-6 -6 -6 -6 -6 -6 -3 -3 -3 -3 -3 -3 -3 -3 -3 -3 -3 -3 -3 -3 -3 -3 -3 -3 -2 -2 -2 -2 -2 -2 -2 -2 -3 -3 -3 -3 -3 -4 -4 -5 -5 -7 -6 -6
-6 -6 -6 -6 -6 -4 -4 -4 -4 -4 -3 -3 -3 -3 -3 -3 -3 -3 -3 -3 -4 -4 -4 -4 -3 -3 -2 -2 -2 -2 -2 -2 -3 -3 -3 -4 -3 -4 -4 -5 -6 -7 -6 -6
-7 -6 -6 -6 -6 -6 -4 -4 -4 -4 -4 -3 -3 -4 -3 -4 -4 -4 -4 -4 -4 -4 -4 -4 -4 -3 -3 -3 -2 -2 -3 -2 -3 -4 -4 -4 -4 -4 -4 -5 -7 -6 -6 -6
-7 -6 -6 -6 -7 -6 -5 -5 -5 -5 -4 -4 -5 -5 -6 -5 -5 -5 -4 -4 -4 -4 -3 -3 -3 -4 -4 -3 -3 -3 -3 -3 -3 -3 -4 -4 -5 -5 -5 -7 -7 -7 -7 -7
-7 -7 -7 -6 -7 -7 -6 -6 -5 -5 -5 -5 -5 -6 -5 -5 -5 -5 -5 -5 -4 -4 -4 -4 -4 -5 -5 -5 -5 -5 -5 -5 -5 -4 -4 -5 -5 -6 -7 -7 -7 -7 -6 -8
-7 -8 -7 -7 -7 -7 -7 -6 -5 -5 -5 -6 -6 -5 -5 -5 -6 -6 -5 -5 -5 -4 -5 -4 -5 -6 -6 -6 -5 -6 -5 -5 -5 -5 -7 -6 -7 -7 -7 -7 -7 -7 -7 -8
-9 -9 -8 -8 -7 -8 -7 -7 -6 -5 -5 -6 -7 -6 -5 -6 -6 -5 -5 -5 -5 -5 -5 -6 -6 -6 -6 -6 -6 -7 -7 -6 -7 -7 -7 -7 -7 -7 -7 -7 -7 -7 -8 -8
-10 -10 -9 -9 -8 -8 -8 -7 -5 -5 -6 -7 -7 -7 -6 -6 -6 -6 -6 -5 -5 -4 -5 -7 -7 -6 -6 -6 -6 -7 -7 -7 -7 -7 -7 -7 -7 -6 -6 -6 -7 -7 -8 -9
-9 -9 -10 -9 -9 -8 -8 -8 -6 -6 -7 -7 -7 -7 -7 -7 -6 -6 -6 -5 -5 -5 -6 -7 -7 -7 -6 -6 -6 -7 -7 -7 -7 -6 -6 -6 -6 -6 -6 -7 -7 -8 -9 -9
Height
3059 3055 3048 3053 3056 3056 3059 3057 3054 3056 3057 3054 3051 3045 3046 3048 3045 3046 3048 3049 3050 3050 3058 3058 3061 3063 3066 3068 3068 3069 3069 3070 3071 3073 3075 3077 3080 3081 3081 3082 3083 3084 3085 3086
3050 3036 3046 3052 3052 3051 3051 3049 3046 3047 3052 3051 3046 3030 3037 3039 3037 3039 3040 3041 3042 3043 3043 3047 3051 3055 3057 3060 3062 3063 3063 3064 3066 3068 3069 3071 3074 3075 3075 3076 3078 3080 3081 3082
3035 3030 3038 3041 3044 3044 3040 3040 3043 3043 3046 3043 3043 3016 3026 3028 3029 3032 3033 3034 3034 3033 3033 3036 3040 3045 3047 3050 3052 3059 3059 3061 3061 3062 3063 3064 3065 3067 3070 3073 3074 3075 3076 3077
3023 3025 3030 3032 3030 3039 3028 3039 3038 3040 3043 3037 3042 3016 3002 3018 3018 3021 3025 3027 3027 3026 3024 3027 3031 3035 3039 3042 3043 3047 3051 3054 3054 3055 3057 3059 3061 3064 3067 3068 3067 3069 3069 3070
3003 3013 3021 3020 3020 3032 3018 3033 3035 3035 3035 3036 3026 3032 2970 3007 3009 3013 3016 3017 3018 3017 3017 3019 3022 3027 3030 3031 3034 3037 3042 3045 3046 3049 3051 3053 3055 3057 3058 3060 3063 3063 3063 3065
3003 3012 3012 3012 3018 3021 3023 3026 3029 3028 3028 3026 3007 3023 2987 2998 2999 3003 3007 3008 3009 3009 3009 3012 3014 3016 3018 3021 3026 3029 3034 3035 3037 3042 3045 3046 3048 3049 3051 3055 3058 3059 3059 3059
2998 2995 2999 3005 3009 3015 3016 3018 3023 3021 3016 3008 3006 3013 2984 2988 2996 2998 2999 3001 3001 3002 3001 3002 3000 3004 3007 3012 3017 3019 3020 3023 3029 3035 3038 3042 3044 3045 3047 3049 3053 3054 3056 3054
2991 2988 2990 2989 2987 2995 2999 3003 3007 3002 3003 2998 3000 2993 2989 2990 2989 2987 2988 2989 2993 2995 2995 2993 2993 2996 2999 3001 3006 3011 3013 3016 3024 3028 3031 3034 3035 3039 3042 3043 3045 3048 3049 3050
2985 2980 2982 2983 2983 2989 2987 2991 2985 2996 2994 2997 2989 2981 2988 2983 2981 2979 2979 2978 2980 2983 2986 2985 2986 2988 2991 2990 2993 3001 3007 3015 3019 3020 3022 3026 3029 3030 3031 3037 3040 3042 3043 3045
2982 2980 2976 2978 2980 2980 2977 2981 2988 2988 2985 2982 2979 2979 2976 2977 2975 2974 2971 2972 2973 2974 2977 2981 2979 2981 2982 2983 2985 2993 3002 3008 3011 3012 3017 3021 3022 3022 3026 3029 3031 3035 3038 3039
2974 2975 2970 2971 2969 2971 2971 2973 2977 2976 2976 2972 2970 2971 2971 2971 2969 2967 2966 2963 2968 2966 2967 2973 2976 2975 2977 2975 2980 2988 2995 2996 3000 3004 3007 3014 3016 3017 3018 3022 3024 3028 3030 3032
2963 2962 2965 2966 2963 2962 2959 2961 2966 2966 2965 2963 2962 2962 2963 2965 2967 2965 2964 2969 2971 2968 2967 2967 2968 2972 2974 2976 2978 2984 2986 2992 2994 2997 3002 3005 3007 3010 3010 3013 3017 3022 3023 3025
2957 2958 2961 2959 2959 2951 2951 2955 2956 2959 2959 2955 2961 2961 2960 2960 2961 2958 2962 2965 2965 2964 2965 2962 2963 2967 2970 2974 2976 2980 2982 2986 2988 2993 2995 2997 2999 3000 3003 3006 3008 3014 3015 3017
2950 2949 2948 2945 2949 2947 2948 2949 2951 2948 2952 2952 2952 2957 2962 2960 2959 2960 2958 2959 2960 2961 2964 2964 2963 2965 2966 2966 2971 2972 2974 2977 2982 2985 2987 2990 2991 2993 2995 2998 3003 3005 3006 3008
2940 2938 2941 2938 2944 2943 2944 2947 2947 2942 2946 2946 2950 2955 2950 2956 2958 2956 2953 2952 2955 2957 2957 2957 2958 2958 2960 2962 2965 2965 2964 2967 2970 2974 2978 2981 2982 2983 2986 2991 2995 2997 2999 2999
2929 2931 2933 2934 2938 2936 2938 2941 2941 2940 2939 2941 2945 2946 2949 2947 2949 2952 2949 2947 2950 2952 2952 2952 2951 2950 2949 2955 2958 2959 2959 2961 2964 2967 2969 2971 2973 2975 2977 2982 2986 2989 2992 2994
2923 2924 2924 2928 2931 2932 2934 2928 2931 2932 2933 2936 2938 2940 2943 2942 2943 2946 2944 2941 2943 2947 2947 2946 2943 2944 2945 2945 2947 2946 2949 2951 2955 2956 2959 2962 2964 2964 2968 2973 2976 2981 2984 2988
2917 2919 2920 2921 2927 2927 2922 2923 2925 2927 2929 2931 2932 2932 2936 2936 2937 2939 2937 2934 2935 2939 2939 2939 2936 2936 2936 2935 2936 2938 2939 2942 2943 2943 2945 2949 2954 2953 2958 2964 2967 2973 2977 2981
2908 2913 2912 2916 2918 2917 2918 2919 2922 2923 2923 2925 2927 2929 2930 2931 2932 2931 2928 2928 2926 2928 2928 2928 2927 2925 2923 2924 2924 2924 2926 2928 2929 2930 2934 2939 2941 2946 2950 2955 2958 2965 2970 2976
2904 2906 2906 2908 2911 2908 2909 2914 2918 2916 2917 2920 2923 2926 2928 2928 2925 2925 2925 2920 2919 2921 2919 2918 2917 2914 2912 2912 2911 2912 2913 2914 2916 2920 2924 2930 2932 2938 2941 2945 2951 2958 2964 2969
2900 2901 2900 2897 2898 2904 2911 2911 2912 2915 2920 2918 2919 2921 2921 2919 2920 2919 2914 2914 2915 2911 2909 2905 2903 2902 2901 2900 2900 2900 2901 2903 2906 2911 2914 2919 2925 2928 2932 2938 2944 2951 2958 2962
2895 2895 2896 2899 2898 2905 2906 2911 2910 2909 2912 2914 2915 2917 2917 2915 2913 2912 2910 2909 2906 2902 2899 2897 2897 2895 2894 2892 2890 2888 2889 2892 2895 2900 2902 2909 2915 2923 2928 2935 2941 2948 2953 2955
2898 2897 2896 2897 2897 2898 2901 2904 2903 2906 2907 2911 2912 2911 2910 2910 2909 2909 2908 2904 2901 2897 2895 2894 2892 2889 2890 2888 2884 2879 2880 2883 2888 2888 2888 2901 2911 2917 2924 2932 2938 2943 2947 2950
2896 2895 2894 2895 2896 2894 2897 2900 2902 2902 2903 2903 2906 2908 2907 2907 2907 2906 2905 2903 2898 2895 2892 2890 2889 2888 2886 2883 2878 2874 2872 2875 2878 2885 2892 2900 2908 2915 2922 2929 2934 2939 2943 2947
2897 2897 2896 2895 2898 2898 2897 2895 2894 2894 2899 2901 2904 2904 2904 2905 2905 2905 2903 2901 2897 2892 2889 2889 2889 2889 2886 2882 2879 2878 2878 2881 2886 2892 2897 2904 2910 2917 2922 2927 2932 2936 2939 2941
2891 2892 2893 2891 2894 2891 2891 2890 2890 2892 2894 2898 2900 2902 2902 2903 2903 2903 2902 2901 2898 2892 2891 2891 2891 2891 2889 2889 2887 2886 2887 2890 2893 2898 2902 2907 2911 2915 2919 2923 2926 2929 2932 2936
Wind_Speed
31 33 38 37 35 38 35 40 40 39 33 33 36 44 37 29 29 29 30 32 35 39 35 36 33 30 30 32 32 31 29 27 28 29 28 29 29 28 28 27 27 26 24 24
38 49 40 37 35 36 36 39 41 39 33 34 37 50 43 39 36 33 34 34 38 39 42 43 41 36 32 35 34 34 32 27 24 24 23 26 28 30 30 29 28 26 24 24
45 42 23 40 42 42 45 42 39 40 35 38 37 57 49 48 47 42 40 38 36 40 38 44 45 41 38 35 35 31 33 24 23 23 23 27 31 35 33 30 28 26 25 23
48 48 44 32 28 33 49 36 39 38 31 29 24 31 57 40 43 39 38 38 38 35 39 46 48 48 44 38 39 37 29 30 28 26 28 29 29 30 28 28 28 27 24 22
54 39 30 45 51 41 52 36 30 27 29 34 45 20 75 34 27 23 31 36 43 39 39 38 38 39 39 42 43 42 33 28 33 34 27 28 27 29 31 32 30 26 23 20
49 46 31 30 30 23 28 30 27 25 25 15 41 24 53 34 33 29 26 29 33 37 39 47 48 52 45 49 40 44 43 42 35 30 24 25 26 30 33 31 28 25 22 19
36 45 43 43 35 22 23 17 4 7 9 11 12 21 50 25 18 16 17 16 19 25 35 40 37 42 49 48 48 46 49 51 40 26 30 25 24 29 29 27 26 24 20 20
16 15 22 32 44 45 48 39 17 10 7 7 20 16 28 23 21 28 36 39 31 37 38 35 37 42 45 47 49 50 54 52 36 34 25 21 23 26 28 29 30 25 24 22
13 21 23 17 14 25 26 28 52 25 16 3 11 20 23 26 23 26 19 18 18 25 36 43 40 37 38 42 50 52 55 44 32 27 19 17 24 29 29 32 31 28 25 23
34 27 29 18 22 19 30 12 12 19 8 11 10 11 19 19 16 17 19 17 14 10 9 10 15 19 25 32 39 51 49 37 26 16 17 24 29 28 32 35 32 28 27 22
33 27 29 19 31 27 20 29 19 16 16 5 2 6 13 14 15 20 16 22 20 21 14 8 12 12 14 15 25 42 45 41 25 18 22 27 25 29 33 34 32 33 27 24
30 18 21 33 24 28 33 31 28 13 8 12 7 8 17 16 12 11 3 6 11 21 18 9 5 10 9 10 19 36 34 29 24 30 26 29 27 29 32 35 36 34 28 26
33 19 18 18 17 25 24 26 25 22 14 7 2 3 17 15 16 18 29 25 24 28 29 22 18 18 16 20 24 30 32 38 34 27 28 32 30 31 35 38 40 36 32 28
37 33 30 20 8 12 10 19 19 17 10 10 17 20 16 22 22 24 31 26 27 14 17 15 15 19 20 25 29 36 41 33 32 35 36 34 33 31 36 41 41 39 40 30
34 27 26 27 21 15 15 19 22 20 16 10 11 23 26 25 24 20 20 21 20 24 24 25 27 26 30 35 24 31 26 33 38 41 40 36 32 31 36 42 43 44 40 34
33 25 18 23 22 22 17 20 22 22 21 22 22 34 25 14 15 18 16 17 18 19 16 17 18 17 24 31 39 37 29 28 30 37 44 38 36 31 36 42 44 47 39 32
30 28 18 11 11 11 11 31 30 28 22 18 21 21 17 20 19 21 18 17 17 17 17 19 20 22 23 29 32 34 29 29 33 32 38 45 44 36 35 43 46 48 37 30
20 24 17 8 14 4 13 14 11 12 10 13 16 19 22 20 19 21 23 23 24 27 27 26 27 30 32 32 35 36 37 42 43 40 34 47 47 38 32 40 45 45 35 27
28 26 9 10 16 8 10 13 14 12 14 15 16 16 22 25 25 25 25 25 25 27 27 28 28 30 33 36 39 39 38 39 43 41 33 41 51 39 34 37 43 35 31 21
22 22 27 19 7 6 7 11 8 8 14 9 11 16 17 19 23 20 23 23 24 27 30 30 27 31 33 36 37 38 40 35 37 39 45 33 49 42 41 42 32 31 23 19
20 18 28 11 4 5 18 13 10 6 9 13 11 13 13 17 19 23 22 24 26 29 29 29 29 29 29 31 31 36 37 39 36 36 36 31 47 50 38 27 29 25 22 23
4 10 11 15 5 5 9 10 10 6 11 9 15 12 12 13 16 20 19 21 21 24 24 23 21 22 19 20 24 29 30 34 36 39 45 32 44 36 26 26 24 20 24 19
3 5 3 4 4 13 17 5 7 10 14 12 12 11 8 7 8 10 14 12 17 15 14 18 22 19 15 20 23 23 30 28 30 41 45 47 29 27 24 22 21 24 22 20
8 8 3 4 8 5 7 11 13 14 17 15 6 5 7 8 8 9 9 11 14 18 17 9 12 8 11 18 14 5 7 8 14 19 22 25 24 22 21 22 25 23 21 20
13 9 7 6 5 6 5 10 10 14 17 14 8 3 5 4 4 4 8 11 15 19 10 3 5 8 8 7 8 19 22 19 19 19 12 16 18 19 22 24 21 18 17 17
25 25 23 21 15 12 9 12 12 13 23 20 10 7 5 4 1 3 6 11 17 21 4 3 4 6 4 3 4 7 13 12 7 9 12 16 18 21 22 21 21 22 23 22
Wind_Direction
251 247 233 240 253 252 255 262 265 271 274 278 271 273 269 249 272 264 262 255 267 264 258 254 250 254 258 254 255 258 263 262 258 252 250 249 247 246 249 253 257 260 264 271
244 249 252 252 251 254 254 257 265 274 274 275 279 273 270 259 254 257 259 267 267 270 249 249 250 253 255 253 257 259 257 258 261 261 258 253 247 247 247 250 255 259 263 267
242 248 250 241 249 248 251 253 261 267 280 274 285 277 266 260 259 254 258 265 263 265 246 249 250 255 256 252 253 259 265 265 269 268 263 258 249 246 250 253 253 256 258 264
244 246 235 236 241 238 255 256 260 266 274 270 278 283 277 275 270 266 266 264 259 257 249 252 255 258 261 257 254 246 257 251 256 271 266 270 266 257 257 250 249 251 255 260
239 244 236 243 246 240 252 261 262 261 263 281 267 255 269 280 272 263 263 262 261 258 253 250 256 259 263 258 260 253 234 251 257 257 274 277 263 251 243 245 247 247 250 256
245 244 249 253 259 247 262 260 263 265 261 247 254 226 269 267 274 278 271 264 259 259 263 262 263 258 253 257 254 254 249 250 236 254 259 270 270 251 247 250 247 244 244 254
251 248 246 242 244 219 220 214 236 245 208 245 246 216 242 259 290 255 240 270 262 254 260 256 256 256 254 255 250 253 250 242 235 246 252 267 261 255 247 241 240 239 245 253
240 273 241 238 233 236 229 214 208 225 212 239 238 230 244 260 258 258 266 271 261 251 254 256 259 255 253 261 257 251 251 239 235 246 253 261 267 255 245 239 234 232 241 251
234 247 242 228 229 228 236 217 237 245 248 320 241 243 247 256 254 257 243 243 237 240 243 252 257 255 257 255 264 252 242 232 235 261 250 256 265 260 238 235 232 228 237 246
250 264 257 233 230 229 233 232 201 207 212 232 236 236 224 215 212 215 220 218 214 207 208 241 254 257 256 256 259 240 229 232 251 250 255 251 261 248 232 228 224 228 235 241
232 239 252 241 228 227 212 220 220 219 223 206 201 229 211 189 193 211 209 224 220 220 208 242 277 279 276 250 249 237 223 233 249 256 256 259 265 250 232 224 223 226 231 237
233 242 254 252 250 230 223 212 212 219 195 219 224 222 184 180 191 208 207 310 284 252 229 219 230 235 258 261 235 218 232 252 256 251 249 257 261 251 237 225 226 227 230 234
242 240 250 258 248 216 212 213 221 241 270 198 314 328 194 195 200 278 293 265 258 272 249 218 206 230 253 251 245 253 258 253 249 254 261 263 263 257 239 228 227 228 231 232
246 239 233 236 245 205 208 229 233 218 202 221 234 248 262 254 264 298 310 307 306 272 260 261 257 281 261 255 257 254 252 244 246 250 249 255 258 252 236 229 229 230 233 223
240 240 238 235 247 233 237 238 217 221 226 229 238 263 258 269 297 292 292 293 280 274 268 260 266 264 281 245 260 246 249 255 254 254 251 251 257 255 237 229 230 233 237 223
226 228 237 249 258 273 258 252 253 252 249 257 261 273 289 291 265 276 274 278 279 280 288 275 269 263 267 258 260 267 274 255 260 264 255 251 250 247 237 231 232 237 238 226
218 223 221 251 254 228 247 264 267 264 262 250 242 279 292 278 282 280 282 287 286 279 275 272 267 262 265 267 273 274 254 247 255 258 266 248 252 238 237 233 235 239 239 225
244 229 208 185 162 214 242 248 223 225 222 236 253 278 267 273 280 283 286 287 281 277 273 267 264 265 263 260 262 263 260 256 251 248 253 254 251 237 233 237 237 234 232 221
238 234 194 182 198 239 214 220 235 238 267 253 247 255 266 277 278 279 285 280 279 274 273 273 272 268 265 264 263 260 251 254 252 251 247 257 251 237 234 241 235 231 217 214
232 239 213 191 194 201 193 180 183 211 254 260 248 248 252 268 278 281 265 267 271 279 281 276 275 268 267 266 261 257 251 252 244 258 238 256 250 244 233 236 222 212 206 215
207 222 225 211 166 195 180 169 172 224 283 303 285 276 272 269 272 277 279 282 286 290 286 281 280 278 279 275 271 261 254 247 243 245 249 241 247 239 234 220 213 200 207 220
262 202 220 228 169 194 179 198 204 213 222 278 283 254 261 272 277 287 294 298 307 303 295 283 283 288 290 295 281 262 255 249 240 242 253 238 243 227 215 208 198 203 226 217
275 243 259 223 185 165 155 187 227 231 223 247 257 269 276 291 297 306 328 325 323 312 299 300 295 285 275 292 306 280 252 259 245 258 246 228 220 212 191 192 213 221 222 219
301 315 293 200 247 295 262 274 261 246 246 211 193 269 280 276 294 313 330 342 353 341 312 299 306 252 301 303 309 247 213 208 223 227 220 202 200 177 191 204 214 222 219 217
274 278 278 259 262 282 272 281 277 256 224 194 198 191 255 282 276 321 15 18 7 343 305 294 300 306 327 58 113 132 145 160 157 153 169 170 173 187 206 220 216 218 217 210
276 276 272 269 276 291 297 302 274 276 209 188 177 199 230 282 3 44 34 36 25 22 48 21 12 47 96 95 159 156 178 162 167 181 199 204 205 211 212 214 214 211 207 216